Lapse_Rate
7.2 7.1 6.9 6.5 6.6 6.6 6.8 6.8 6.8 6.6 6.7 6.8 6.7 6.8 6.7 6.7 6.6 6.5 6.7 6.7 6.7 6.4 6.5 6.5 6.5 6.4 6.3 6.3 6.2 6.1 6.0 5.9 5.9 5.9 5.9 5.9 5.8 5.6 5.4 5.4 5.2 4.9 5.1 5.0 5.0 4.8 4.9 4.9 5.2
7.3 7.0 6.9 6.5 6.6 6.7 7.0 6.9 6.8 6.6 6.7 6.8 6.8 6.8 6.9 6.9 6.6 6.5 6.6 6.7 6.6 6.6 6.6 6.6 6.5 6.4 6.3 6.2 6.1 6.0 6.0 5.9 6.0 5.9 5.8 5.9 5.8 5.8 5.6 5.5 5.3 5.1 5.1 4.9 5.0 4.9 5.0 5.0 5.2
7.4 7.2 6.9 6.7 6.7 6.8 7.1 7.1 6.6 6.6 6.6 6.8 6.8 6.9 6.9 7.0 6.6 6.3 6.4 6.5 6.5 6.5 6.5 6.4 6.4 6.4 6.2 6.2 6.1 6.1 6.1 6.0 5.9 5.8 5.8 5.8 5.7 5.8 5.9 5.7 5.4 5.3 5.2 5.0 5.1 5.2 5.1 5.1 5.2
7.0 6.9 6.8 6.8 7.1 7.0 7.1 6.9 6.5 6.4 6.6 6.7 6.7 6.6 6.7 6.7 6.6 6.3 6.2 6.3 6.2 6.2 6.3 6.3 6.3 6.3 6.2 6.1 6.0 6.0 6.1 6.0 5.9 6.0 6.0 5.9 5.9 5.9 6.0 5.8 5.6 5.3 5.2 5.2 5.1 5.2 5.3 5.2 5.2
6.8 6.7 6.6 6.7 7.1 7.2 6.9 6.8 6.6 6.5 6.5 6.5 6.6 6.6 6.6 6.4 6.4 6.5 6.3 6.2 6.1 6.1 6.0 6.1 6.2 6.2 6.1 6.0 5.9 6.0 6.1 6.0 5.9 5.8 5.8 5.8 5.8 5.9 6.0 5.9 5.7 5.5 5.3 5.2 5.2 5.3 5.4 5.3 5.1
6.9 6.8 6.6 6.7 7.2 7.2 6.8 6.5 6.5 6.4 6.4 6.4 6.4 6.4 6.5 6.4 6.3 6.2 6.1 6.1 6.1 6.0 5.9 5.9 6.0 6.0 5.8 5.8 5.8 5.9 5.8 5.9 5.8 5.6 5.5 5.5 5.5 5.6 5.6 5.6 5.7 5.6 5.5 5.3 5.2 5.2 5.3 5.3 5.1
6.6 6.6 6.7 6.8 7.2 7.3 7.0 6.6 6.4 6.6 6.6 6.5 6.5 6.4 6.5 6.8 6.2 6.2 6.0 5.9 5.9 5.9 5.9 5.8 6.0 5.9 5.8 5.7 5.6 5.7 5.7 5.8 5.5 5.5 5.5 5.4 5.2 5.3 5.2 5.3 5.5 5.6 5.4 5.3 5.3 5.3 5.1 5.2 5.2
6.6 6.3 6.5 6.9 7.1 7.2 7.0 7.0 6.7 6.6 6.6 6.7 6.6 6.5 6.6 6.4 6.1 6.1 6.0 6.0 5.7 5.8 5.9 6.1 6.1 5.9 5.6 5.5 5.5 5.4 5.5 5.5 5.5 5.5 5.4 5.4 5.3 5.3 5.1 5.1 5.3 5.5 5.5 5.4 5.3 5.3 5.3 5.2 5.1
6.4 6.3 6.7 6.8 7.1 7.1 6.9 6.9 6.9 6.7 6.7 6.7 6.8 6.6 6.4 6.3 6.1 6.1 6.1 6.0 5.8 5.8 5.9 6.0 6.0 5.8 5.9 5.6 5.5 5.4 5.4 5.6 5.5 5.5 5.5 5.5 5.5 5.4 5.2 5.2 5.2 5.2 5.3 5.3 5.4 5.5 5.3 5.0 5.1
6.2 6.6 6.6 6.5 6.6 6.8 6.8 6.8 6.8 6.7 6.7 6.7 6.8 6.4 6.2 6.2 6.2 6.1 5.9 5.8 5.9 5.8 5.8 5.9 5.9 5.7 5.6 5.4 5.5 5.5 5.4 5.5 5.7 5.7 5.6 5.7 5.6 5.5 5.5 5.4 5.4 5.5 5.4 5.4 5.5 5.6 5.6 5.4 5.0
6.3 6.6 6.5 6.4 6.4 6.4 6.5 6.5 6.4 6.6 6.6 6.9 6.5 6.1 6.0 6.2 6.3 6.0 6.0 5.9 5.8 6.0 6.1 6.1 6.1 5.9 5.9 5.8 5.7 5.7 5.5 5.6 5.6 5.6 5.7 5.5 5.4 5.4 5.4 5.4 5.4 5.5 5.6 5.6 5.6 5.6 5.6 5.8 5.4
6.2 6.5 6.3 6.5 6.3 6.4 6.3 6.1 6.2 6.2 7.0 6.4 6.3 6.3 6.3 6.2 6.3 6.0 5.8 5.6 5.4 5.5 5.7 5.9 6.1 6.1 5.9 5.8 5.6 5.5 5.5 5.5 5.4 5.4 5.5 5.4 5.4 5.3 5.2 5.3 5.1 5.3 5.6 5.9 5.7 5.5 5.6 5.9 5.7
6.2 6.3 6.2 6.4 6.3 6.5 6.3 6.4 6.1 6.5 6.7 6.0 6.4 6.4 6.6 6.3 6.2 5.9 5.7 5.5 5.6 5.5 5.5 5.6 5.7 5.7 5.7 5.6 5.5 5.4 5.3 5.3 5.4 5.4 5.4 5.4 5.5 5.5 5.4 5.5 5.5 5.3 5.4 5.6 5.7 5.7 5.8 5.8 5.6
6.0 6.2 6.3 6.3 6.4 6.3 6.2 6.6 6.1 7.3 6.6 6.2 6.2 6.5 6.4 6.2 6.0 5.6 5.5 5.7 5.5 5.3 5.3 5.4 5.4 5.2 5.1 5.1 5.0 5.1 5.1 5.3 5.4 5.4 5.4 5.4 5.7 5.9 6.0 5.9 5.7 5.6 5.6 5.5 5.6 5.6 5.6 5.7 5.3
5.6 5.9 6.1 6.4 6.5 6.3 6.2 6.6 7.2 6.8 6.3 6.5 6.3 6.6 6.5 6.4 5.9 5.9 5.5 5.4 5.4 5.4 5.4 5.5 5.4 5.3 5.1 5.1 5.0 4.8 4.9 5.0 5.0 5.1 5.5 5.9 6.0 6.1 6.0 6.0 6.1 6.0 5.8 5.7 5.8 6.0 6.0 5.3 5.5
5.4 5.3 6.1 6.5 6.1 6.1 6.1 7.0 6.9 6.5 6.4 6.7 6.6 6.4 6.4 6.4 6.2 5.8 5.7 5.5 5.3 5.6 5.5 5.4 5.2 5.3 5.2 5.1 5.0 4.9 4.9 4.9 5.0 5.1 5.2 5.4 5.7 5.8 5.9 6.0 6.2 6.2 5.9 5.8 5.8 5.7 5.6 5.7 5.2
5.7 5.3 6.0 6.3 6.1 6.0 5.9 6.5 6.5 6.5 6.4 6.5 6.4 6.3 6.2 6.2 6.2 6.0 5.9 5.6 5.6 5.5 5.4 5.2 5.3 5.2 5.2 5.0 4.9 4.9 5.0 5.0 5.0 5.3 5.3 5.3 5.4 5.7 6.3 6.4 6.3 6.1 6.1 6.1 5.9 5.6 5.5 5.2 5.1
5.9 5.7 5.8 6.1 6.0 6.0 5.9 6.5 6.8 6.7 6.1 6.3 6.3 6.3 6.2 6.1 6.1 5.8 5.9 6.0 5.7 5.4 5.3 5.4 5.3 5.2 5.0 4.9 4.8 4.8 4.9 5.1 5.3 5.4 5.5 5.5 5.7 5.7 6.1 6.1 6.3 6.2 6.1 6.1 5.9 5.8 5.0 5.1 5.3
5.7 5.6 5.6 6.1 6.2 5.6 6.0 6.0 6.8 6.7 6.4 6.5 6.7 6.6 6.5 6.5 6.2 6.1 6.0 5.8 5.8 5.6 5.5 5.5 5.4 5.2 5.0 4.9 4.8 4.9 5.2 5.4 5.4 5.4 5.7 5.5 5.6 5.7 6.1 6.4 6.3 6.0 6.1 6.0 5.8 5.8 5.6 5.4 5.2
5.4 5.5 6.0 6.2 6.5 5.5 5.7 5.8 6.7 7.0 7.1 7.1 7.0 6.9 6.7 6.5 6.4 6.3 6.1 5.8 5.8 5.7 5.6 5.5 5.4 5.1 5.1 5.0 5.0 5.4 5.5 5.5 5.4 5.6 5.6 5.6 5.7 6.0 6.3 6.6 6.4 6.2 5.5 6.0 6.1 6.2 6.2 5.9 5.5
5.8 5.6 6.0 5.9 6.2 5.6 5.4 5.5 6.7 7.2 7.3 7.2 7.1 7.1 7.0 6.8 6.5 6.2 6.1 6.1 5.9 5.7 5.7 5.6 5.4 5.2 5.2 5.1 5.4 5.6 5.6 5.5 5.7 5.8 5.7 5.5 5.8 6.0 6.5 6.4 6.3 6.0 5.5 5.7 5.9 6.2 6.0 5.9 5.6
6.1 6.9 6.1 6.2 5.6 5.4 5.7 4.6 6.1 7.2 7.8 7.4 7.5 7.4 7.3 7.2 6.8 6.3 6.1 6.1 6.0 5.8 5.8 5.6 5.5 5.4 5.3 5.4 5.8 5.9 5.6 5.8 5.8 5.9 5.8 5.8 5.9 6.0 6.1 6.1 6.1 6.2 5.5 6.1 6.2 6.0 5.9 5.9 5.6
6.3 6.7 6.4 6.1 5.9 5.6 5.4 5.2 5.6 6.7 7.8 7.4 7.3 7.0 7.2 7.0 6.8 6.6 6.4 6.2 6.0 5.8 5.7 5.6 5.5 5.5 5.3 5.7 6.0 5.9 5.9 5.9 5.9 5.9 6.1 5.7 5.7 6.0 5.5 5.6 5.7 5.5 5.8 6.2 6.0 5.8 5.7 5.4 5.1
6.5 6.1 6.4 6.2 6.2 5.3 5.7 6.0 5.6 7.1 7.4 7.4 7.4 7.0 7.0 6.8 6.6 6.5 6.4 6.3 6.0 5.7 5.6 5.7 5.6 5.3 5.5 5.7 6.0 5.9 5.7 5.9 5.7 5.9 5.9 5.9 5.8 6.0 5.8 5.7 5.7 5.7 5.9 5.8 5.8 5.7 5.4 5.4 5.2
7.0 6.4 6.2 6.2 5.9 5.8 6.2 5.8 6.3 7.3 6.8 7.3 7.2 7.0 7.1 7.0 6.8 6.5 6.4 6.1 5.9 5.7 5.7 5.8 5.5 5.4 5.5 5.6 5.9 5.9 5.8 5.5 5.6 5.9 5.7 5.7 6.1 6.1 6.2 6.1 6.1 6.1 6.0 5.9 5.7 5.6 5.6 5.4 5.3
6.1 6.9 6.9 6.3 6.1 6.4 5.9 5.6 7.0 7.1 6.9 7.1 7.1 7.0 6.8 7.0 6.8 6.5 6.3 6.0 5.8 5.8 5.7 5.5 5.3 5.4 5.4 5.5 5.7 6.0 5.7 5.4 5.7 5.6 5.8 5.8 5.9 6.1 6.4 6.4 6.3 6.5 6.2 6.3 6.4 6.2 6.0 5.4 5.0
6.2 6.2 6.7 6.9 6.1 5.9 6.4 6.5 7.4 8.0 7.1 6.8 7.3 7.3 6.9 6.8 6.6 6.4 6.2 6.0 5.8 5.8 5.6 5.3 5.2 5.4 5.1 5.6 5.9 6.1 5.9 5.8 5.5 5.4 5.6 5.8 5.8 5.8 5.9 6.2 6.2 6.1 6.3 6.2 6.1 6.2 5.7 5.2 5.0
7.0 7.3 6.1 6.5 6.0 6.3 6.2 6.5 7.3 7.6 7.9 7.2 7.5 7.2 7.0 6.8 6.6 6.4 6.1 6.0 5.9 5.8 5.6 5.3 5.2 5.3 5.1 5.8 6.1 6.2 6.1 6.1 6.0 5.9 5.9 5.7 5.9 5.9 5.8 5.7 6.2 6.3 6.2 6.1 6.2 6.0 5.6 5.4 5.1
7.1 6.8 6.3 6.3 6.8 7.1 7.1 7.3 8.0 7.4 7.1 7.6 7.6 7.5 7.0 6.7 6.6 6.4 6.2 6.1 6.0 5.8 5.6 5.4 5.3 5.5 5.3 5.9 6.2 6.2 6.3 6.3 6.4 6.0 6.0 5.8 5.7 5.9 6.0 5.9 6.3 6.7 6.5 6.5 6.6 6.5 5.8 5.3 5.5
7.7 7.9 7.5 6.6 6.5 6.8 7.2 7.5 7.8 7.2 7.2 7.7 7.7 7.4 7.4 6.9 6.6 6.3 6.1 6.2 6.1 6.0 5.7 5.6 5.4 5.6 5.5 5.9 6.2 6.3 6.3 6.3 6.3 6.0 5.7 5.5 5.7 5.7 5.7 5.3 6.0 6.5 6.5 6.8 6.3 7.0 6.4 5.7 5.3
Wind_Speed
4 4 1 4 1 2 2 3 2 3 3 1 1 2 5 4 2 2 1 12 7 14 18 18 16 14 15 12 13 11 8 8 7 6 6 7 7 8 9 8 9 10 12 15 16 18 19 18 18
3 0 3 2 2 0 3 2 5 4 4 9 6 3 2 3 1 5 7 11 11 15 18 17 17 16 14 11 15 12 9 7 7 5 7 5 6 7 9 9 11 12 14 17 17 18 18 18 17
1 3 2 3 2 3 3 4 4 2 10 2 3 3 2 6 3 5 3 12 12 12 16 16 16 16 15 13 15 13 9 8 5 7 4 7 6 8 9 10 13 13 15 15 17 17 16 18 17
2 3 3 2 3 5 4 3 2 5 1 2 3 5 1 2 3 0 4 13 12 13 15 16 16 18 16 15 15 15 11 10 8 8 5 8 8 8 10 11 14 14 15 15 16 16 16 18 16
3 2 2 1 4 4 4 4 3 3 3 3 2 5 4 1 1 1 7 11 12 12 14 16 14 15 15 13 14 14 12 11 10 8 7 6 7 9 12 13 14 14 15 16 17 16 15 16 14
3 2 1 3 5 3 5 5 3 2 1 4 4 7 3 2 1 1 7 8 9 12 13 14 15 14 13 12 14 12 11 12 11 9 8 8 9 12 12 12 14 14 16 15 16 16 15 15 14
4 2 2 2 4 4 3 2 3 5 4 3 8 6 1 2 2 4 7 7 9 10 11 13 14 15 14 13 13 12 13 12 12 11 9 10 9 11 13 11 13 14 16 16 16 15 16 15 14
4 3 2 3 2 4 2 1 1 3 3 3 2 4 3 4 7 5 6 7 8 9 10 11 13 14 14 14 13 14 15 14 13 12 10 7 11 11 12 11 12 14 15 15 16 15 16 14 15
4 2 3 4 5 3 2 1 1 2 4 2 4 4 1 7 9 7 6 5 5 6 9 10 10 12 14 13 14 16 14 14 13 11 10 7 8 10 10 11 12 14 15 16 16 18 17 15 15
2 3 6 3 2 2 3 1 1 2 0 2 2 2 1 10 10 9 9 9 9 10 10 9 10 10 12 12 12 12 13 12 12 10 9 8 9 9 9 10 12 15 15 16 18 19 19 15 13
3 4 4 4 5 3 3 3 2 2 4 6 5 6 7 9 9 9 9 8 11 10 8 10 10 10 10 8 9 5 6 9 9 10 10 9 9 9 9 9 10 11 14 14 17 19 13 13 12
3 6 4 4 1 2 3 3 4 6 8 5 9 2 9 13 13 13 11 10 10 8 9 10 9 9 9 7 6 6 6 7 8 9 10 9 7 9 9 8 7 9 11 15 16 13 14 14 14
4 4 4 7 7 5 4 9 9 8 10 7 5 5 11 14 15 11 10 7 6 8 8 9 8 8 6 7 6 6 6 7 8 10 11 10 9 5 8 7 8 10 12 13 11 12 12 14 14
4 4 6 6 7 4 6 7 7 7 9 11 7 9 11 14 16 9 8 11 10 9 9 8 8 7 7 6 6 5 7 8 9 9 10 11 9 9 7 7 8 10 12 13 12 11 8 10 14
2 5 6 7 3 6 6 9 10 10 5 9 10 10 9 13 8 14 12 10 9 8 6 7 7 6 7 8 7 6 8 10 8 9 8 8 8 10 10 7 6 9 12 14 14 13 8 6 10
4 1 3 2 4 2 7 8 9 4 8 13 11 11 12 13 14 11 6 7 7 6 6 5 3 6 6 7 7 6 9 9 8 9 8 12 10 10 9 5 4 7 7 8 9 6 6 3 5
2 5 4 7 2 2 5 5 5 1 3 10 10 12 11 11 10 11 9 7 6 5 5 4 3 2 6 8 6 6 7 7 7 8 9 13 14 11 5 6 7 9 7 7 8 6 7 6 5
4 5 4 6 0 2 3 14 13 17 9 14 13 11 12 14 18 10 9 7 6 4 3 1 1 1 1 3 3 3 3 3 6 9 10 13 12 14 9 6 6 6 5 5 8 8 6 6 7
2 3 5 3 4 5 13 15 15 13 9 13 14 14 14 15 7 9 9 9 7 5 3 2 2 3 3 2 4 3 3 4 6 7 11 12 12 14 12 8 7 7 6 7 8 7 13 7 5
6 11 14 7 7 5 9 17 17 17 14 16 17 15 15 9 8 9 10 9 8 7 5 4 4 4 4 3 2 3 5 4 5 5 8 10 13 14 14 9 7 5 5 8 9 10 6 4 9
8 11 7 11 4 5 6 8 5 5 4 6 10 9 9 14 13 12 11 9 7 6 5 3 3 2 4 6 3 3 2 2 3 3 5 8 13 15 15 15 9 8 5 6 9 9 10 7 6
12 10 13 10 6 5 1 6 4 8 9 7 10 7 6 5 9 13 12 10 8 6 4 2 1 3 4 6 5 5 3 3 2 2 4 7 13 13 14 16 13 8 6 8 8 8 8 10 9
6 4 8 5 5 2 3 4 6 3 6 3 6 3 1 4 10 14 12 10 8 5 4 2 1 2 2 5 4 4 4 2 2 2 4 7 7 12 14 13 10 12 7 9 10 10 8 10 9
4 1 3 2 1 5 7 7 3 3 3 3 1 0 4 8 13 13 10 10 8 5 4 4 4 4 3 3 3 5 6 5 4 3 4 5 5 7 10 15 13 13 12 13 12 12 12 10 8
5 3 2 2 3 5 0 2 8 5 7 6 5 2 6 11 14 13 12 10 8 6 6 6 6 6 5 6 5 5 5 3 2 4 4 5 5 2 6 8 9 11 12 11 11 13 11 11 10
9 6 4 8 7 4 1 5 5 5 5 3 4 4 11 12 12 13 12 10 9 7 7 7 6 6 7 7 7 6 6 4 4 3 2 1 3 4 5 4 5 10 11 10 9 8 9 11 9
6 9 11 2 1 1 3 5 9 4 5 1 0 8 12 12 11 12 11 10 9 7 7 8 7 6 7 8 6 7 7 7 5 4 3 2 3 3 4 5 5 4 8 11 10 8 10 11 12
12 8 3 1 6 8 2 3 6 6 9 4 3 8 10 10 10 10 10 10 7 8 7 8 7 6 7 7 5 5 6 5 4 3 2 0 3 5 6 6 6 8 6 8 10 8 10 10 7
4 9 5 2 7 9 4 4 4 6 6 8 1 8 12 11 11 10 9 9 9 8 7 7 6 6 6 5 4 5 5 5 5 4 3 2 3 3 4 5 6 7 7 9 7 7 10 11 10
5 10 18 6 6 3 3 6 3 4 5 3 6 8 10 11 11 10 10 10 10 9 8 7 6 5 6 5 5 5 5 5 5 4 4 3 2 1 2 4 6 6 7 8 9 10 11 13 13
Wind_Direction
355 355 57 45 78 42 258 233 290 191 191 240 74 177 129 59 114 123 99 171 163 160 168 170 176 175 165 167 154 145 143 141 136 137 120 121 124 127 125 124 125 123 111 108 107 103 96 95 92
345 165 48 90 94 201 253 236 215 204 140 123 95 101 140 102 129 119 133 174 166 160 167 171 180 167 163 170 153 150 148 147 148 131 138 132 136 140 126 130 125 121 114 111 108 105 104 100 94
0 26 90 97 120 215 238 225 200 154 165 129 106 22 127 125 136 147 138 161 154 164 170 172 169 165 166 169 157 153 156 161 173 143 154 151 145 137 137 136 131 127 120 115 114 111 109 102 98
43 25 52 127 218 250 236 284 188 141 136 194 134 126 104 329 132 160 132 156 157 166 172 174 176 169 178 183 172 157 166 173 152 152 176 165 149 149 141 135 139 129 127 124 118 116 113 106 104
45 57 82 126 248 262 252 274 214 181 163 141 185 165 156 286 92 227 158 164 164 166 173 177 182 178 180 184 167 163 174 180 173 164 172 148 147 147 142 140 141 136 138 131 128 125 120 111 112
68 88 92 230 241 256 279 245 199 188 185 143 116 145 169 308 255 131 167 161 165 163 172 179 185 187 191 189 171 169 183 184 179 178 151 152 156 141 149 150 149 144 147 141 139 131 125 121 119
109 101 197 258 283 298 236 143 205 182 171 203 139 140 288 234 184 148 160 158 162 165 169 179 184 191 198 199 179 183 187 188 187 186 170 158 168 154 150 158 157 155 154 146 141 135 126 130 126
107 105 182 223 259 271 314 290 259 179 197 96 155 171 223 189 158 144 156 159 168 174 178 181 187 191 197 201 188 187 193 192 191 186 187 156 170 165 158 163 170 166 164 153 145 140 132 132 124
133 94 223 245 173 239 317 292 279 307 148 216 178 157 239 145 142 133 142 161 175 191 196 191 191 194 196 200 199 192 199 204 201 187 184 172 166 176 169 176 177 175 167 159 153 146 139 133 122
104 162 215 222 234 269 306 233 235 269 232 225 239 182 176 155 162 171 177 183 195 200 201 199 197 198 196 200 201 202 201 207 202 191 179 168 171 177 176 180 184 180 173 161 155 147 144 143 134
168 215 207 244 236 253 294 297 213 193 236 228 206 189 174 177 181 194 196 197 204 205 202 200 199 202 200 201 198 194 203 198 188 186 176 173 166 170 183 185 189 189 175 165 158 153 156 147 139
199 235 223 269 234 344 295 308 276 205 241 227 231 164 178 187 195 202 206 209 207 197 200 201 199 196 197 184 187 187 187 184 187 187 181 178 180 183 177 173 168 183 183 171 162 162 152 146 143
211 248 221 252 279 252 268 250 249 248 259 263 256 205 199 201 205 215 217 220 206 210 202 195 188 195 189 182 171 184 193 195 196 190 192 188 188 192 175 179 173 165 162 170 156 149 158 149 144
208 229 265 268 247 238 235 251 160 240 250 242 222 226 219 209 209 205 216 225 209 207 206 195 197 193 182 175 171 185 188 192 197 201 202 200 194 185 184 173 178 173 170 168 146 153 157 153 149
269 289 305 237 230 235 189 259 229 237 207 225 220 228 230 223 212 218 215 216 214 213 205 205 208 198 195 182 188 180 194 196 195 201 189 202 203 196 186 179 171 181 170 159 152 144 119 139 151
323 339 292 262 153 218 183 270 270 271 219 238 238 234 230 235 225 227 214 229 223 202 199 187 201 209 204 202 201 191 196 195 199 196 188 194 193 199 189 189 170 155 153 151 158 146 136 133 148
0 274 252 310 215 119 194 276 270 116 210 267 247 241 246 248 244 230 200 193 187 193 193 191 154 177 211 210 214 207 208 209 197 190 186 198 198 182 172 189 176 157 149 152 153 160 156 157 122
203 237 256 264 173 41 260 265 265 285 270 267 265 246 232 232 238 223 182 162 151 152 159 156 113 221 193 196 182 167 189 202 207 206 201 201 196 182 150 168 187 169 159 149 150 142 134 142 130
148 215 255 247 250 311 279 273 275 269 266 260 255 248 233 226 222 194 170 154 151 154 162 179 214 226 175 154 188 204 204 194 208 216 213 205 190 183 175 164 174 183 175 164 156 146 134 115 112
210 252 261 283 266 200 282 280 279 264 255 249 250 243 235 214 185 172 161 155 160 153 157 187 218 221 198 186 184 184 188 202 205 205 216 213 201 191 173 164 170 187 155 152 160 151 146 141 162
225 236 246 255 310 249 291 271 270 270 243 275 257 258 248 219 188 170 161 155 148 155 165 196 231 233 203 191 166 146 137 119 156 188 207 201 190 184 175 169 171 158 142 176 173 166 166 155 169
242 213 235 248 280 255 338 292 266 268 296 279 279 241 249 206 168 162 155 152 156 159 164 153 204 219 190 183 188 189 179 183 181 186 202 197 193 186 178 182 177 167 181 179 169 174 174 159 166
232 190 206 228 216 313 214 254 273 288 300 320 337 242 193 164 161 156 154 149 149 150 138 93 90 108 167 184 185 168 173 170 149 186 165 176 173 181 175 185 177 183 177 196 172 172 174 176 171
114 152 64 66 136 249 217 208 262 248 221 281 339 184 162 145 144 142 138 138 134 132 118 101 107 69 79 125 154 172 166 171 174 151 171 166 170 192 194 191 197 194 191 189 182 181 178 175 175
169 143 224 251 230 251 157 194 249 260 275 247 294 192 162 151 140 143 144 141 137 135 122 116 104 90 91 97 94 102 124 170 167 167 182 167 176 205 200 194 200 199 194 200 181 183 180 181 177
173 196 176 233 225 247 109 230 247 206 233 260 277 180 155 157 150 151 150 142 135 132 126 118 111 114 105 100 99 92 89 83 74 54 27 272 211 215 200 203 201 206 202 206 190 182 182 185 189
172 195 231 283 76 269 215 271 289 209 281 287 55 153 163 161 157 152 147 145 142 134 127 125 120 115 117 116 109 111 112 113 121 127 138 209 229 224 226 222 217 240 199 189 182 185 183 180 188
196 139 120 225 229 244 239 260 240 9 299 358 167 168 163 160 157 153 152 149 145 137 132 117 116 121 114 112 114 121 120 120 107 83 61 11 229 224 213 209 209 217 199 192 189 173 170 165 147
145 195 162 225 236 241 246 252 211 187 317 316 315 161 163 163 168 167 161 154 146 138 135 122 116 130 110 104 115 114 105 95 88 78 48 10 321 270 229 222 214 202 179 178 157 156 157 148 125
254 205 188 166 210 237 220 229 143 300 354 24 105 144 159 164 175 176 167 161 156 146 139 127 125 122 110 112 106 96 94 91 90 87 79 74 77 47 248 229 216 176 156 155 150 142 140 138 133